Location: Casone le Fosse
(44.6547°N, 12.1103°E)
Time: 12:11:11
(UTC+00:00)

Cosmos 1892 - Pass Details

Date: 29 October 2020
Orbit: 504 x 523 km, 82.5° (Epoch: 28 November)

Event Time Altitude Azimuth Distance (km) Brightness Sun altitude
Rises 16:54:44 0° 358° (N) 2,666 6.2 -9.5°
Reaches altitude 10° 16:57:00 10° 6° (N) 1,773 5.3 -9.9°
Maximum altitude 17:00:40 39° 77° (ENE) 802 3.2 -10.6°
Drops below altitude 10° 17:04:18 10° 147° (SSE) 1,759 5.2 -11.2°
Sets 17:06:32 0° 155° (SSE) 2,641 6.1 -11.6°
